Home   Weather   Konya   Past weeks
Flag for Turkey

Past Weather in Konya, Turkey — Yesterday and Last 2 Weeks

Now
52 °F

Clear.


Feels Like: 52 °F
Forecast: 76 / 51 °F
Wind: 2 mph from North

Location: Konya Airport

Current Time: Oct 15, 2019 at 7:38:42 am

Latest Report: Oct 15, 2019 at 6:50 am


Visibility: 10 mi

Pressure: 30.21 "Hg (26.66 "Hg at 1041m altitude)

Humidity: 47%

Dew Point: 32 °F

Location of KonyaLocation

Past Weather in Konya — Graph

°F

Konya Temperature Yesterday

Maximum temperature yesterday: 79 °F (at 2:50 pm)
Minimum temperature yesterday: 45 °F (at 4:50 am)
Average temperature yesterday: 62 °F

High & Low Weather Summary for the Past Weeks

 TemperatureHumidityPressure
High82 °F (Oct 2, 3:50 pm)88% (Oct 6, 5:50 am)30.30 "Hg (Oct 6, 5:50 am)
Low45 °F (Oct 8, 6:50 am)16% (Oct 2, 1:50 pm)29.83 "Hg (Oct 6, 5:50 am)
Average64 °F45%30.08 "Hg
* Reported Sep 30 5:50 am — Oct 15 5:50 am, Konya. Weather by CustomWeather, © 2019

Note: Actual official high and low records may vary slightly from our data, if they occured in-between our weather recording intervals... More about our weather records

Advertising

Konya Weather History for the Previous 24 Hours

Scroll right to see more
 ConditionsComfort  
Time TempWeatherWind HumidityBarometerVisibility
5:50 am
Tue, Oct 15
52 °FClear.8 mph47%30.21 "Hg10 mi
4:50 am50 °FClear.3 mph54%30.18 "Hg10 mi
3:50 am54 °FClear.2 mph47%30.18 "Hg10 mi
2:50 am59 °FClear.2 mph42%30.18 "Hg10 mi
1:50 am59 °FClear.6 mph42%30.21 "Hg10 mi
12:50 am57 °FClear.5 mph44%30.21 "Hg10 mi
11:50 pm
Mon, Oct 14
63 °FClear.5 mph34%30.21 "Hg10 mi
10:50 pm61 °FClear.7 mph36%30.21 "Hg10 mi
9:50 pm63 °FClear.6 mph37%30.21 "Hg10 mi
8:50 pm63 °FClear.6 mph32%30.21 "Hg10 mi
7:50 pm64 °FPassing clouds.3 mph32%30.21 "HgN/A
6:50 pm68 °FClear.5 mph26%30.21 "Hg10 mi
5:50 pm77 °FSunny.2 mph21%30.18 "Hg10 mi
4:50 pm79 °FSunny.6 mph20%30.21 "Hg10 mi
3:50 pm79 °FPassing clouds.5 mph18%30.21 "HgN/A
2:50 pm79 °FPassing clouds.5 mph18%30.24 "HgN/A
1:50 pm77 °FPassing clouds.5 mph18%30.24 "HgN/A
12:50 pm75 °FSunny.3 mph21%30.27 "Hg10 mi
11:50 am70 °FPassing clouds.5 mph25%30.30 "HgN/A
10:50 am66 °FSunny.3 mph26%30.30 "Hg10 mi
9:50 am63 °FSunny.2 mph27%30.30 "Hg10 mi
8:50 am55 °FSunny.1 mph33%30.30 "Hg10 mi
7:50 am48 °FSunny.3 mph40%30.30 "Hg10 mi
Weather by CustomWeather, © 2019

See weather overview